• Join FlightAware (Why Join?)
  • Login
  • US Flag 
07:04PM EST


 

Airport Tracker/Info


-or-


 

Live Flight TrackerFlight Track Log ✈ N789EX ✈ 21-Oct-2013 ✈ KBFI - KBFI

Flight Track Log - Related Links

Times and Time Zones

All times are in EDT time to prevent confusion due to time zone crossing. See the N789EX flight status page for this flight to view local times or setup timezone preferences in your user account.

Time Position Orientation Groundspeed Altitude Reporting Facility
EDT Latitude Longitude Course Direction KTS MPH feet Rate Location/Type
12:59PM 47.4700 -122.1590 44° Northeast 258 297 3,700  Level FlightAware
12:59PM 47.4880 -122.1320 45° Northeast 260 299 4,600 3,120 Climbing FlightAware
01:00PM 47.5060 -122.1040 46° Northeast 261 300 5,900 3,120 Climbing FlightAware
01:00PM 47.5230 -122.0770 47° Northeast 268 308 6,800 3,000 Climbing FlightAware
01:00PM 47.5400 -122.0500 47° Northeast 271 312 7,900 3,000 Climbing FlightAware
01:01PM 47.5620 -122.0190 44° Northeast 277 319 9,000 2,460 Climbing FlightAware
01:01PM 47.5690 -122.0130 30° Northeast 278 320 9,200 2,460 Climbing FlightAware
01:01PM 47.5750 -122.0100 19° North 279 321 9,500 3,240 Climbing FlightAware
01:01PM 47.5830 -122.0090 North 279 321 9,800 3,000 Climbing FlightAware
01:01PM 47.5970 -122.0090 360° North 280 322 10,300 3,000 Climbing FlightAware
01:01PM 47.6120 -122.0150 345° North 277 319 10,900 2,040 Climbing FlightAware
01:02PM 47.6510 -122.0460 332° Northwest 303 349 11,900 1,620 Climbing FlightAware
01:02PM 47.6940 -122.0830 330° Northwest 331 381 12,800 2,100 Climbing FlightAware
01:03PM 47.7440 -122.1260 330° Northwest 342 394 14,400 2,460 Climbing FlightAware
01:04PM 47.7970 -122.1710 330° Northwest 352 405 15,900 2,400 Climbing FlightAware
01:04PM 47.8420 -122.2110 329° Northwest 361 415 17,200 2,340 Climbing FlightAware
01:05PM 47.8950 -122.2540 331° Northwest 368 423 18,600 2,220 Climbing FlightAware
01:05PM 47.9230 -122.2620 349° North 373 429 19,200 1,920 Climbing FlightAware
01:05PM 47.9540 -122.2530 11° North 381 438 19,800 1,920 Climbing FlightAware
01:06PM 48.0120 -122.2110 26° Northeast 393 452 21,000 1,860 Climbing FlightAware
01:06PM 48.0600 -122.1750 27° Northeast 398 458 21,900 1,200 Climbing FlightAware
01:07PM 48.0930 -122.1440 32° Northeast 401 461 22,000 120 Climbing FlightAware
01:07PM 48.1140 -122.1040 52° Northeast 403 464 22,000  Level FlightAware
01:07PM 48.1210 -122.0760 69° East 405 466 22,000  Level FlightAware
01:08PM 48.1250 -122.0370 81° East 407 468 22,000  Level FlightAware
01:08PM 48.1200 -121.9260 94° East 425 489 22,000  Level FlightAware
01:09PM 48.1150 -121.8230 94° East 460 529 22,000  Level FlightAware
01:09PM 48.1090 -121.7050 94° East 490 564 22,000  Level FlightAware
01:10PM 48.1040 -121.5940 94° East 504 580 22,000 -120 Level FlightAware
01:10PM 48.0980 -121.4640 94° East 502 578 21,900 -120 Descending FlightAware
01:11PM 48.0920 -121.3520 95° East 500 575 21,900 -120 Level FlightAware
01:12PM 48.0870 -121.2410 94° East 500 575 21,800 -120 Descending FlightAware
01:12PM 48.0800 -121.0980 94° East 500 575 21,800  Level FlightAware
01:13PM 48.0740 -120.9890 95° East 498 573 21,800  Level FlightAware
01:13PM 48.0680 -120.8630 94° East 497 572 21,800 -120 Level FlightAware
01:14PM 48.0620 -120.7420 94° East 500 575 21,700 60 Descending FlightAware
01:15PM 48.0550 -120.6310 95° East 495 570 21,900 240 Climbing FlightAware
01:15PM 48.0460 -120.5020 96° East 504 580 22,000 120 Climbing FlightAware
01:16PM 48.0370 -120.3770 96° East 506 582 22,100 60 Climbing FlightAware
01:16PM 48.0290 -120.2660 96° East 505 581 22,100 -120 Level FlightAware
01:17PM 48.0210 -120.1510 96° East 493 567 22,000 -120 Descending FlightAware
01:17PM 48.0120 -120.0220 96° East 490 564 22,000  Level FlightAware
01:18PM 48.0060 -119.9070 94° East 499 574 22,000  Level FlightAware
01:19PM 47.9990 -119.7730 94° East 503 579 22,000  Level FlightAware
01:19PM 47.9940 -119.6640 94° East 503 579 22,000  Level FlightAware
01:20PM 47.9890 -119.5610 94° East 503 579 22,000  Level FlightAware
01:21PM 47.9840 -119.4550 94° East 503 579 22,000  Level FlightAware
01:21PM 47.9790 -119.3460 94° East 503 579 22,000  Level FlightAware
01:22PM 47.9740 -119.2450 94° East 503 579 22,000  Level FlightAware
01:22PM 47.9690 -119.1420 94° East 503 579 22,000  Level FlightAware
01:24PM 47.9281 -118.7403 94° East 504 580 22,000  Level Seattle Center
01:25PM 47.9136 -118.5358 96° East 499 574 22,000 -60 Level Seattle Center
01:26PM 47.9264 -118.3469 84° East 500 575 21,900 -60 Descending Seattle Center
01:27PM 47.9669 -118.1550 72° East 503 579 21,900  Level Seattle Center
01:28PM 47.9219 -117.9167 106° East 498 573 22,000  Climbing Seattle Center
01:29PM 47.8747 -117.7214 110° East 503 579 21,900 -120 Descending Seattle Center
01:30PM 47.8328 -117.5244 108° East 501 577 21,800  Descending Seattle Center
01:31PM 47.8067 -117.3231 101° East 501 577 22,000  Climbing Seattle Center
01:32PM 47.7936 -117.1183 95° East 500 575 21,900 -60 Descending Seattle Center
01:33PM 47.7831 -116.9131 94° East 501 577 21,900  Level Seattle Center
01:34PM 47.7650 -116.7089 97° East 500 575 22,000 60 Climbing Seattle Center
01:35PM 47.7539 -116.5019 94° East 502 578 22,100 -60 Climbing Seattle Center
01:36PM 47.7347 -116.3031 98° East 496 571 21,900  Descending Seattle Center
01:37PM 47.7397 -116.1178 88° East 485 558 22,200 60 Climbing Seattle Center
01:38PM 47.8497 -116.0900 10° North 463 533 22,100 -180 Descending Seattle Center
01:39PM 47.8861 -116.2656 287° West 465 535 21,900 -120 Descending Seattle Center
01:40PM 47.8961 -116.5042 274° West 475 547 21,900  Level Seattle Center
01:41PM 47.8894 -116.7042 267° West 481 554 21,900  Level Seattle Center
01:42PM 47.8700 -116.9039 262° West 485 558 22,000  Climbing Seattle Center
01:43PM 47.8564 -117.1025 264° West 486 559 21,900 -60 Descending Seattle Center
01:44PM 47.8389 -117.2722 261° West 438 504 21,900  Level Seattle Center
01:45PM 47.8258 -117.4258 263° West 400 460 22,000  Climbing Seattle Center
01:46PM 47.8258 -117.5864 270° West 391 450 21,900  Descending Seattle Center
01:47PM 47.8400 -117.7739 276° West 441 507 22,000  Climbing Seattle Center
01:48PM 47.8508 -117.9750 275° West 476 548 21,900  Descending Seattle Center
01:49PM 47.8644 -118.1761 276° West 488 562 22,000  Climbing Seattle Center
01:50PM 47.8842 -118.3753 278° West 489 563 22,000  Level Seattle Center
01:51PM 47.9000 -118.5722 277° West 457 526 22,000  Level Seattle Center
01:52PM 47.9094 -118.7244 275° West 388 447 22,000  Level Seattle Center
01:58PM 47.9990 -119.8320 275° West 447 514 22,000  Level FlightAware
01:59PM 48.0060 -119.9340 276° West 405 466 22,000  Level FlightAware
01:59PM 48.0130 -120.0250 277° West 373 429 22,000  Level FlightAware
02:00PM 48.0180 -120.1120 275° West 372 428 22,000  Level FlightAware
02:00PM 48.0240 -120.1990 276° West 370 426 22,000  Level FlightAware
02:01PM 48.0300 -120.2910 276° West 369 425 22,000  Level FlightAware
02:02PM 48.0360 -120.3870 275° West 368 423 22,000  Level FlightAware
02:02PM 48.0420 -120.4730 276° West 367 422 22,000  Level FlightAware
02:03PM 48.0470 -120.5580 275° West 372 428 22,000  Level FlightAware
02:03PM 48.0540 -120.6520 276° West 387 445 22,000  Level FlightAware
02:04PM 48.0600 -120.7520 275° West 426 490 22,000  Level FlightAware
02:05PM 48.0670 -120.8510 276° West 459 528 22,000  Level FlightAware
02:05PM 48.0760 -120.9740 276° West 482 555 22,000  Level FlightAware
02:06PM 48.0820 -121.0820 275° West 489 563 22,000 60 Level FlightAware
02:06PM 48.0870 -121.2010 274° West 486 559 22,100  Climbing FlightAware
02:07PM 48.0930 -121.3160 275° West 488 562 22,000 -120 Descending FlightAware
02:08PM 48.0990 -121.4360 274° West 474 545 22,000  Level FlightAware
02:08PM 48.1040 -121.5480 274° West 430 495 22,000  Level FlightAware
02:09PM 48.0960 -121.6280 262° West 402 463 22,000  Level FlightAware
02:09PM 48.0870 -121.6570 245° Southwest 394 453 22,000  Level FlightAware
02:09PM 48.0700 -121.6850 228° Southwest 386 444 22,000  Level FlightAware
02:09PM 48.0540 -121.6980 209° Southwest 384 442 22,000  Level FlightAware
02:09PM 48.0340 -121.7040 191° South 384 442 22,000  Level FlightAware
02:10PM 48.0010 -121.6920 166° South 386 444 22,000  Level FlightAware
02:10PM 47.9830 -121.6700 141° Southeast 386 444 22,000  Level FlightAware
02:10PM 47.9720 -121.6450 123° Southeast 385 443 22,000  Level FlightAware
02:10PM 47.9680 -121.6220 105° East 384 442 22,000  Level FlightAware
02:11PM 47.9700 -121.5070 88° East 387 445 22,000  Level FlightAware
02:12PM 47.9740 -121.3850 87° East 389 448 22,000  Level FlightAware
02:12PM 47.9760 -121.3090 88° East 388 447 22,000  Level FlightAware
02:13PM 47.9790 -121.2200 87° East 416 479 22,000  Level FlightAware
02:13PM 47.9820 -121.1130 88° East 449 517 22,000 -840 Level FlightAware
02:14PM 47.9850 -121.0190 87° East 470 541 21,100 -960 Descending FlightAware
02:14PM 47.9880 -120.9070 88° East 486 559 21,000 -120 Descending FlightAware
02:15PM 47.9920 -120.7860 87° East 491 565 21,000  Level FlightAware
02:16PM 47.9950 -120.6630 88° East 493 567 21,000  Level FlightAware
02:16PM 47.9990 -120.5540 87° East 491 565 21,000  Level FlightAware
02:17PM 48.0020 -120.4320 88° East 492 566 21,000  Level FlightAware
02:17PM 48.0020 -120.3180 90° East 493 567 21,000 240 Level FlightAware
02:18PM 48.0030 -120.1970 89° East 469 540 21,300 720 Climbing FlightAware
02:18PM 48.0050 -120.0920 88° East 425 489 21,900 600 Climbing FlightAware
02:19PM 48.0090 -119.9980 86° East 397 457 22,000 60 Climbing FlightAware
02:20PM 48.0060 -119.8800 92° East 384 442 22,000  Level FlightAware
02:21PM 47.9970 -119.7730 97° East 384 442 22,000  Level FlightAware
02:21PM 47.9910 -119.6960 97° East 384 442 22,000  Level FlightAware
02:22PM 47.9840 -119.6180 98° East 384 442 22,000  Level FlightAware
02:22PM 47.9770 -119.5350 97° East 384 442 22,000  Level FlightAware
02:23PM 47.9710 -119.4550 96° East 384 442 22,000  Level FlightAware
02:23PM 47.9640 -119.3760 98° East 384 442 22,000  Level FlightAware
02:25PM 47.9503 -119.0975 98° East 387 445 22,000  Level Seattle Center
02:26PM 47.9406 -118.9022 94° East 412 474 22,000  Level Seattle Center
02:27PM 47.9222 -118.6633 96° East 490 564 22,000  Level Seattle Center
02:28PM 47.9042 -118.4592 97° East 495 570 22,000 -60 Level Seattle Center
02:29PM 47.8972 -118.2917 93° East 457 526 21,900 -60 Descending Seattle Center
02:30PM 47.8803 -118.1314 99° East 400 460 21,900  Level Seattle Center
02:31PM 47.8633 -117.9439 98° East 385 443 22,000  Climbing Seattle Center
02:32PM 47.8489 -117.7681 97° East 430 495 22,000  Level Seattle Center
02:33PM 47.8325 -117.5708 97° East 471 542 22,000  Level Seattle Center
02:34PM 47.8172 -117.3653 96° East 492 566 22,000  Level Seattle Center
02:35PM 47.8056 -117.1606 95° East 497 572 22,000  Level Seattle Center
02:36PM 47.7894 -116.9550 97° East 500 575 22,000  Level Seattle Center
02:37PM 47.7708 -116.7508 98° East 500 575 22,100  Climbing Seattle Center
02:38PM 47.7547 -116.5431 97° East 503 579 22,100 -60 Level Seattle Center
02:39PM 47.7372 -116.3378 97° East 504 580 22,000  Descending Seattle Center
02:40PM 47.7214 -116.1325 96° East 504 580 22,100  Climbing Seattle Center
02:41PM 47.7053 -115.9272 97° East 503 579 22,100 -120 Level Seattle Center
02:42PM 47.6875 -115.6817 96° East 503 579 21,900 -60 Descending Seattle Center
02:43PM 47.7750 -115.5625 42° Northeast 469 540 22,000  Climbing Seattle Center
02:44PM 47.8656 -115.6706 321° Northwest 470 541 22,000  Level Seattle Center
02:45PM 47.8628 -115.8686 269° West 479 551 22,000 -60 Level Seattle Center
02:46PM 47.8569 -116.0681 268° West 481 554 21,900  Descending Seattle Center
02:47PM 47.8525 -116.2661 268° West 481 554 22,100 540 Climbing Seattle Center
02:48PM 47.8444 -116.4561 266° West 473 544 23,000 540 Climbing Seattle Center
02:49PM 47.8261 -116.6197 261° West 429 494 23,300 1,320 Climbing Seattle Center
02:50PM 47.8114 -116.7806 262° West 406 467 25,800 2,160 Climbing Seattle Center
02:51PM 47.7992 -116.9397 264° West 396 456 27,700 1,920 Climbing Seattle Center
02:52PM 47.7869 -117.0975 263° West 390 449 29,800 1,080 Climbing Seattle Center
02:53PM 47.8019 -117.2486 278° West 377 434 30,000 120 Climbing Seattle Center
02:54PM 47.8269 -117.4314 282° West 376 433 30,100  Climbing Seattle Center
02:55PM 47.8322 -117.5842 273° West 374 430 30,100 -120 Level Seattle Center
02:56PM 47.8336 -117.7392 271° West 374 430 29,900 -120 Descending Seattle Center
02:57PM 47.8372 -117.8953 272° West 377 434 29,900  Level Seattle Center
02:58PM 47.8436 -118.0514 274° West 379 436 30,000 60 Climbing Seattle Center
03:04PM 47.9230 -119.0420 274° West 417 480 30,400  Climbing FlightAware
03:05PM 47.9300 -119.1230 277° West 419 482 30,300 -300 Descending FlightAware
03:05PM 47.9390 -119.2100 279° West 407 468 30,100 -300 Descending FlightAware
03:06PM 47.9530 -119.3170 281° West 412 474 30,000  Descending FlightAware
03:06PM 47.9660 -119.4240 280° West 412 474 30,100 60 Climbing FlightAware
03:07PM 47.9780 -119.5170 281° West 413 475 30,100 60 Level FlightAware
03:08PM 47.9910 -119.6190 281° West 413 475 30,200 -180 Climbing FlightAware
03:08PM 48.0010 -119.7160 279° West 414 476 29,900  Descending FlightAware
03:09PM 48.0110 -119.8130 279° West 409 471 30,200 240 Climbing FlightAware
03:09PM 48.0160 -119.9040 275° West 410 472 30,200  Level FlightAware
03:10PM 48.0190 -120.0130 272° West 409 471 30,200 -120 Level FlightAware
03:10PM 48.0190 -120.1050 270° West 420 483 30,100 -180 Descending FlightAware
03:11PM 48.0250 -120.2110 275° West 436 502 30,000 -120 Descending FlightAware
03:12PM 48.0310 -120.3390 274° West 436 502 30,000 -240 Level FlightAware
03:12PM 48.0360 -120.4630 273° West 441 507 29,700 -120 Descending FlightAware
03:13PM 48.0390 -120.5640 273° West 440 506 29,900 360 Climbing FlightAware
03:13PM 48.0400 -120.6480 271° West 439 505 30,100 420 Climbing FlightAware
03:14PM 48.0420 -120.7600 272° West 438 504 30,400 -180 Climbing FlightAware
03:15PM 48.0460 -120.8600 273° West 438 504 29,900 -300 Descending FlightAware
03:15PM 48.0520 -120.9690 275° West 437 503 30,100 120 Climbing FlightAware
03:16PM 48.0570 -121.0700 274° West 437 503 30,100  Level FlightAware
03:16PM 48.0630 -121.1810 275° West 440 506 30,100 -120 Level FlightAware
03:17PM 48.0690 -121.2910 275° West 455 524 30,000 -120 Descending FlightAware
03:18PM 48.0750 -121.3980 275° West 463 533 30,000 60 Level FlightAware
03:18PM 48.0810 -121.5060 275° West 462 532 30,100  Climbing FlightAware
03:19PM 48.0870 -121.6290 274° West 463 533 30,000 -120 Descending FlightAware
03:19PM 48.0880 -121.7280 271° West 463 533 30,000 -180 Level FlightAware
03:20PM 48.0890 -121.8430 271° West 458 527 29,800  Descending FlightAware
03:24PM 47.9450 -121.6530 138° Southeast 474 545 30,100 60 Climbing FlightAware
03:25PM 47.9720 -121.5500 69° East 477 549 30,100 60 Level FlightAware
03:25PM 47.9960 -121.4530 70° East 476 548 30,200 120 Climbing FlightAware
03:26PM 48.0270 -121.3270 70° East 475 547 30,300 60 Climbing FlightAware
03:26PM 48.0520 -121.2270 69° East 474 545 30,300  Level FlightAware
03:27PM 48.0800 -121.1140 70° East 475 547 30,300 -120 Level FlightAware
03:28PM 48.1030 -121.0010 73° East 475 547 30,200 -300 Descending FlightAware
03:28PM 48.0990 -120.9130 94° East 476 548 30,000 -120 Descending FlightAware
03:29PM 48.0870 -120.7960 99° East 473 544 30,100 60 Climbing FlightAware
03:29PM 48.0790 -120.6890 96° East 475 547 30,100 -120 Level FlightAware
03:30PM 48.0700 -120.5740 97° East 472 543 30,000 -120 Descending FlightAware
03:30PM 48.0610 -120.4690 97° East 479 551 30,000  Level FlightAware
03:31PM 48.0380 -120.3430 105° East 479 551 30,000  Level FlightAware
03:31PM 48.0180 -120.2410 106° East 476 548 30,000  Level FlightAware
03:32PM 48.0100 -120.1250 96° East 475 547 30,000  Level FlightAware
03:33PM 48.0050 -120.0070 94° East 474 545 30,000  Level FlightAware
03:33PM 48.0010 -119.9060 93° East 473 544 30,000  Level FlightAware
03:34PM 47.9960 -119.7840 93° East 471 542 30,000  Level FlightAware
03:34PM 47.9910 -119.6660 94° East 467 537 30,000  Level FlightAware
03:35PM 47.9850 -119.5560 95° East 468 539 30,000  Level FlightAware
03:35PM 47.9780 -119.4650 97° East 467 537 30,000  Level FlightAware
03:36PM 47.9680 -119.3540 98° East 468 539 30,000  Level FlightAware
03:37PM 47.9560 -119.2090 97° East 468 539 30,000  Level FlightAware
03:37PM 47.9440 -119.0760 98° East 473 544 30,000  Level FlightAware
03:38PM 47.9360 -118.9870 98° East 473 544 30,000 60 Level FlightAware
03:39PM 47.9270 -118.8720 97° East 472 543 30,100 60 Climbing FlightAware
03:39PM 47.9210 -118.8000 97° East 472 543 30,100  Level FlightAware
03:40PM 47.9130 -118.7010 97° East 472 543 30,100  Level FlightAware
03:40PM 47.9050 -118.6030 97° East 472 543 30,100  Level FlightAware
03:41PM 47.8960 -118.4980 97° East 472 543 30,100  Level FlightAware
03:42PM 47.8880 -118.3960 97° East 472 543 30,100  Level FlightAware
03:42PM 47.8790 -118.2980 98° East 472 543 30,100  Level FlightAware
03:43PM 47.8710 -118.1990 97° East 472 543 30,100  Level FlightAware
03:43PM 47.8630 -118.1000 97° East 472 543 30,100  Level FlightAware
03:44PM 47.8550 -118.0010 97° East 472 543 30,100  Level FlightAware
03:45PM 47.8470 -117.9020 97° East 472 543 30,100  Level FlightAware
03:45PM 47.8390 -117.8030 97° East 472 543 30,100  Level FlightAware
03:46PM 47.8310 -117.7040 97° East 472 543 30,100  Level FlightAware
03:46PM 47.8220 -117.6060 98° East 472 543 30,100  Level FlightAware
03:47PM 47.8140 -117.5070 97° East 472 543 30,100  Level FlightAware
03:48PM 47.8060 -117.4050 97° East 472 543 30,100  Level FlightAware
03:48PM 47.7883 -116.9492 97° East 492 566 30,100 -120 Level Seattle Center
03:49PM 47.7708 -116.7464 97° East 492 566 29,900 -60 Descending Seattle Center
03:50PM 47.7492 -116.5406 99° East 499 574 30,000  Climbing Seattle Center
03:51PM 47.7353 -116.3342 96° East 503 579 30,000  Level Seattle Center
03:52PM 47.7239 -116.1275 95° East 506 582 30,000  Level Seattle Center
03:53PM 47.6144 -116.0178 146° Southeast 510 587 30,000  Level Seattle Center
03:54PM 47.5114 -116.1358 218° Southwest 503 579 30,000  Level Seattle Center
03:55PM 47.5481 -116.3133 287° West 484 557 30,000 -60 Level Seattle Center
03:56PM 47.6136 -116.4836 300° West 477 549 29,900  Descending Seattle Center
03:57PM 47.6800 -116.6519 300° West 475 547 30,000  Climbing Seattle Center
03:58PM 47.7478 -116.8222 301° West 479 551 30,000 -60 Level Seattle Center
03:59PM 47.7869 -117.0497 284° West 494 568 29,900  Descending Seattle Center
04:00PM 47.7933 -117.2481 273° West 487 560 30,000  Climbing Seattle Center
04:01PM 47.8128 -117.4464 278° West 484 557 30,000  Level Seattle Center
04:03PM 47.8272 -117.6442 276° West 483 556 30,000  Level Seattle Center
04:04PM 47.8447 -117.8428 278° West 485 558 30,000  Level Seattle Center
04:09PM 47.9340 -119.0140 278° West 500 575 30,200  Climbing FlightAware
04:10PM 47.9490 -119.1390 280° West 499 574 30,100  Descending FlightAware
04:10PM 47.9600 -119.2380 279° West 500 575 30,200  Climbing FlightAware
04:11PM 47.9730 -119.3610 279° West 503 579 30,100  Descending FlightAware
04:12PM 47.9840 -119.4960 277° West 504 580 30,200 60 Climbing FlightAware
04:12PM 47.9930 -119.6310 276° West 504 580 30,200 -120 Level FlightAware
04:13PM 47.9990 -119.7480 274° West 504 580 30,100 -120 Descending FlightAware
04:13PM 48.0050 -119.8760 274° West 504 580 30,100 60 Level FlightAware
04:14PM 48.0090 -119.9910 273° West 502 578 30,200 240 Climbing FlightAware
04:15PM 48.0110 -120.1160 271° West 501 577 30,400 120 Climbing FlightAware
04:15PM 48.0120 -120.2430 271° West 501 577 30,400  Level FlightAware
04:16PM 48.0110 -120.3580 269° West 502 578 30,400  Level FlightAware
04:16PM 48.0170 -120.4820 274° West 498 573 30,400 -300 Level FlightAware
04:17PM 48.0320 -120.5960 281° West 499 574 30,100 -360 Descending FlightAware
04:17PM 48.0460 -120.7160 280° West 496 571 30,000 -180 Descending FlightAware
04:18PM 48.0550 -120.8320 277° West 481 554 29,900  Descending FlightAware
04:19PM 48.0630 -120.9360 277° West 480 552 30,000 120 Climbing FlightAware
04:19PM 48.0730 -121.0630 277° West 496 571 30,100 120 Climbing FlightAware
04:20PM 48.0600 -121.1820 261° West 497 572 30,200  Climbing FlightAware
04:20PM 48.0460 -121.1960 214° Southwest 497 572 30,100 -540 Descending FlightAware
04:20PM 48.0370 -121.2000 197° South 497 572 30,100 -780 Level FlightAware
04:20PM 48.0280 -121.2010 184° South 498 573 30,000 -420 Descending FlightAware
04:21PM 47.9770 -121.1490 146° Southeast 507 583 29,900 -360 Descending FlightAware
04:21PM 47.9730 -121.1220 102° East 508 585 29,800 -780 Descending FlightAware
04:21PM 48.0010 -121.0540 58° Northeast 493 567 29,500 300 Descending FlightAware
04:22PM 48.0580 -121.0060 29° Northeast 477 549 30,100 960 Climbing FlightAware
04:22PM 48.0830 -120.9930 19° North 481 554 30,200 -180 Climbing FlightAware
04:22PM 48.1400 -121.0190 343° North 492 566 30,000 -660 Descending FlightAware
04:22PM 48.1480 -121.0450 295° West 494 568 29,800 -2,280 Descending FlightAware
04:22PM 48.1480 -121.0710 270° West 500 575 29,400 -1,620 Descending FlightAware
04:23PM 48.1430 -121.0980 254° West 493 567 29,400 1,500 Level FlightAware
04:23PM 48.1080 -121.2190 247° West 484 557 30,600 1,080 Climbing FlightAware
04:24PM 48.0740 -121.3280 245° Southwest 500 575 30,800 360 Climbing FlightAware
04:24PM 48.0720 -121.3550 264° West 492 566 30,900 -900 Climbing FlightAware
04:24PM 48.0780 -121.3970 282° West 498 573 30,500 -2,700 Descending FlightAware
04:24PM 48.0920 -121.4190 314° West 496 571 30,000 -4,920 Descending FlightAware
04:24PM 48.1000 -121.4270 326° Northwest 492 566 29,600 -3,720 Descending FlightAware
04:25PM 48.1170 -121.4310 351° North 488 562 29,200 -1,260 Descending FlightAware
04:25PM 48.1520 -121.4340 357° North 468 539 29,100  Descending FlightAware
04:25PM 48.1680 -121.4430 339° North 457 526 29,200  Climbing FlightAware
04:25PM 48.1850 -121.4630 322° Northwest 461 531 29,100  Descending FlightAware
04:25PM 48.1960 -121.4890 302° West 464 534 29,200 780 Climbing FlightAware
04:25PM 48.2020 -121.5260 284° West 466 536 29,400 1,140 Climbing FlightAware
04:26PM 48.1910 -121.6170 260° West 474 545 30,000 1,140 Climbing FlightAware
04:27PM 48.1580 -121.7150 243° Southwest 476 548 30,600 840 Climbing FlightAware
04:27PM 48.1350 -121.7540 229° Southwest 477 549 30,700  Climbing FlightAware
04:27PM 48.1140 -121.7760 215° Southwest 481 554 30,600 -540 Descending FlightAware
04:27PM 48.0880 -121.7890 198° South 485 558 30,500 -660 Descending FlightAware
04:28PM 48.0360 -121.7800 173° South 500 575 30,200 -540 Descending FlightAware
04:28PM 48.0120 -121.7600 151° Southeast 504 580 30,200  Level FlightAware
04:28PM 47.9960 -121.7370 136° Southeast 508 585 30,200  Level FlightAware
04:28PM 47.9750 -121.6700 115° Southeast 516 594 30,200 60 Level FlightAware
04:29PM 47.9660 -121.5450 96° East 525 604 30,300 240 Climbing FlightAware
04:29PM 47.9740 -121.4270 84° East 522 601 30,500 60 Climbing FlightAware
04:30PM 48.0010 -121.2850 74° East 524 603 30,400  Descending FlightAware
04:31PM 48.0230 -121.1790 73° East 525 604 30,500 120 Climbing FlightAware
04:31PM 48.0520 -121.0480 72° East 521 600 30,600  Climbing FlightAware
04:32PM 48.0750 -120.9380 73° East 513 590 30,500 -660 Descending FlightAware
04:32PM 48.0790 -120.8880 83° East 517 595 30,100 -600 Descending FlightAware
04:33PM 48.0740 -120.7800 94° East 521 600 30,100  Level FlightAware
04:33PM 48.0630 -120.6500 97° East 524 603 30,100 -120 Level FlightAware
04:34PM 48.0500 -120.5360 100° East 523 602 30,000 -120 Descending FlightAware
04:34PM 48.0350 -120.4160 101° East 522 601 30,000  Level FlightAware
04:35PM 48.0250 -120.2890 97° East 519 597 30,000 -120 Level FlightAware
04:35PM 48.0170 -120.1520 95° East 519 597 29,900 -180 Descending FlightAware
04:36PM 48.0110 -120.0380 94° East 521 600 29,800  Descending FlightAware
04:37PM 48.0050 -119.9170 94° East 519 597 29,900 240 Climbing FlightAware
04:37PM 47.9990 -119.7880 94° East 527 606 30,100 60 Climbing FlightAware
04:38PM 47.9920 -119.6520 94° East 529 609 30,000  Descending FlightAware
04:38PM 47.9880 -119.5360 93° East 527 606 30,100 120 Climbing FlightAware
04:39PM 47.9830 -119.4100 93° East 529 609 30,200  Climbing FlightAware
04:40PM 47.9810 -119.2760 91° East 531 611 30,100 -180 Descending FlightAware
04:40PM 47.9750 -119.1340 94° East 527 606 30,000  Descending FlightAware
04:41PM 47.9540 -118.9920 102° East 533 613 30,100 60 Climbing FlightAware
04:41PM 47.9400 -118.8900 102° East 533 613 30,100  Level FlightAware
04:42PM 47.9240 -118.7790 102° East 533 613 30,100  Level FlightAware
04:43PM 47.9080 -118.6690 102° East 533 613 30,100  Level FlightAware
04:43PM 47.8930 -118.5590 101° East 533 613 30,100  Level FlightAware
04:44PM 47.8770 -118.4490 102° East 533 613 30,100  Level FlightAware
04:44PM 47.8610 -118.3360 102° East 533 613 30,100  Level FlightAware
04:45PM 47.8450 -118.2260 102° East 533 613 30,100  Level FlightAware
04:46PM 47.8290 -118.1160 102° East 533 613 30,100  Level FlightAware
04:46PM 47.8140 -118.0060 101° East 533 613 30,100  Level FlightAware
04:47PM 47.7980 -117.8990 103° East 533 613 30,100  Level FlightAware
04:47PM 47.7820 -117.7860 102° East 533 613 30,100  Level FlightAware
04:48PM 47.7670 -117.6770 102° East 533 613 30,100  Level FlightAware
04:49PM 47.7510 -117.5670 102° East 533 613 30,100  Level FlightAware
04:49PM 47.7350 -117.4570 102° East 533 613 30,100  Level FlightAware
04:50PM 47.7190 -117.3440 102° East 533 613 30,100  Level FlightAware
04:50PM 47.7030 -117.2350 102° East 533 613 30,100 300 Level FlightAware
04:51PM 47.7631 -116.7497 102° East 517 595 30,600 420 Climbing Seattle Center
04:52PM 47.7353 -116.5389 101° East 518 596 31,000 240 Climbing Seattle Center
04:53PM 47.7094 -116.3211 100° East 531 611 31,100 -240 Climbing Seattle Center
04:54PM 47.6853 -116.1044 99° East 534 615 30,600 -900 Descending Seattle Center
04:55PM 47.6708 -115.8419 95° East 535 616 29,300 -300 Descending Seattle Center
04:56PM 47.7094 -115.6456 74° East 529 609 30,000 240 Climbing Seattle Center
04:57PM 47.8431 -115.6211 North 521 600 29,900 120 Descending Seattle Center
04:58PM 47.8986 -115.7981 295° West 516 594 30,300 480 Climbing Seattle Center
05:00PM 47.8483 -115.9994 250° West 518 596 30,900  Climbing Seattle Center
05:01PM 47.7961 -116.2028 249° West 523 602 30,300 -720 Descending Seattle Center
05:02PM 47.7472 -116.3892 249° West 529 609 29,500 300 Descending Seattle Center
05:03PM 47.7114 -116.6383 258° West 520 598 31,000 720 Climbing Seattle Center
05:04PM 47.7219 -116.8506 274° West 521 600 31,000 -600 Level Seattle Center
05:05PM 47.8253 -116.9414 329° Northwest 525 604 29,900 -60 Descending Seattle Center
05:06PM 47.9556 -117.0025 343° North 508 585 30,900 480 Climbing Seattle Center
05:07PM 47.9683 -117.1986 276° West 515 593 30,900 60 Level Seattle Center
05:08PM 47.9514 -117.4094 263° West 516 594 31,100 -120 Climbing Seattle Center
05:09PM 47.8353 -117.5089 210° Southwest 529 609 30,700 -60 Descending Seattle Center
05:10PM 47.6922 -117.4775 172° South 532 612 31,000 -1,140 Climbing Seattle Center
05:11PM 47.6019 -117.6186 227° Southwest 532 612 28,500 -300 Descending Seattle Center
05:12PM 47.6856 -117.7861 307° West 506 582 30,500 180 Climbing Seattle Center
05:18PM 47.9340 -119.0170 307° West 530 610 30,000 -120 Descending FlightAware
05:18PM 47.9400 -119.1380 274° West 529 609 30,000  Level FlightAware
05:19PM 47.9460 -119.2640 274° West 528 608 30,000  Level FlightAware
05:19PM 47.9520 -119.3920 274° West 530 610 30,000  Level FlightAware
05:20PM 47.9590 -119.5300 274° West 531 611 30,000  Level FlightAware
05:21PM 47.9650 -119.6480 274° West 531 611 30,000  Level FlightAware
05:21PM 47.9730 -119.7860 275° West 532 612 30,000  Level FlightAware
05:22PM 47.9790 -119.9100 274° West 532 612 30,000  Level FlightAware
05:22PM 47.9860 -120.0360 275° West 532 612 30,000  Level FlightAware
05:23PM 47.9920 -120.1650 274° West 529 609 30,000  Level FlightAware
05:23PM 47.9990 -120.2840 275° West 529 609 30,000  Level FlightAware
05:24PM 48.0060 -120.4370 274° West 530 610 30,000  Level FlightAware
05:25PM 48.0130 -120.5690 275° West 530 610 30,000  Level FlightAware
05:25PM 48.0190 -120.6950 274° West 531 611 30,000 60 Level FlightAware
05:26PM 48.0260 -120.8200 275° West 530 610 30,100 60 Climbing FlightAware
05:27PM 48.0340 -120.9500 275° West 529 609 30,100 60 Level FlightAware
05:27PM 48.0410 -121.0720 275° West 526 605 30,200  Climbing FlightAware
05:28PM 48.0490 -121.1960 276° West 521 600 30,100 -180 Descending FlightAware
05:28PM 48.0530 -121.3320 273° West 519 597 30,000 -180 Descending FlightAware
05:29PM 48.0440 -121.3720 251° West 522 601 30,000 180 Level FlightAware
05:29PM 48.0230 -121.4180 236° Southwest 524 603 30,100 240 Climbing FlightAware
05:29PM 48.0070 -121.4380 220° Southwest 526 605 30,100 -300 Level FlightAware
05:29PM 47.9820 -121.4580 208° Southwest 531 611 30,000 -240 Descending FlightAware
05:29PM 47.9430 -121.4680 190° South 535 616 30,000  Level FlightAware
05:30PM 47.8990 -121.4560 170° South 537 618 30,000  Level FlightAware
05:30PM 47.8730 -121.4340 150° Southeast 539 620 30,000 -300 Level FlightAware
05:30PM 47.8510 -121.4020 136° Southeast 541 623 29,900 -240 Descending FlightAware
05:30PM 47.8350 -121.3640 122° Southeast 541 623 29,900 240 Level FlightAware
05:31PM 47.8260 -121.3190 107° East 539 620 30,000  Climbing FlightAware
05:31PM 47.8280 -121.2000 89° East 542 624 29,900 60 Descending FlightAware
05:32PM 47.8430 -121.0520 81° East 543 625 30,100 60 Climbing FlightAware
05:32PM 47.8520 -120.9340 83° East 538 619 30,000 -120 Descending FlightAware
05:33PM 47.8620 -120.8030 83° East 534 615 30,000  Level FlightAware
05:33PM 47.8730 -120.6700 83° East 537 618 30,000 60 Level FlightAware
05:34PM 47.8840 -120.5410 83° East 530 610 30,100  Climbing FlightAware
05:35PM 47.8940 -120.4180 83° East 530 610 30,000  Descending FlightAware
05:35PM 47.9060 -120.2850 82° East 532 612 30,100 60 Climbing FlightAware
05:36PM 47.9170 -120.1650 82° East 529 609 30,100 -180 Level FlightAware
05:36PM 47.9290 -120.0360 82° East 520 598 29,900 -180 Descending FlightAware
05:37PM 47.9410 -119.9110 82° East 526 605 29,900  Level FlightAware
05:38PM 47.9520 -119.7920 82° East 530 610 29,900 -180 Level FlightAware
05:38PM 47.9660 -119.6560 81° East 533 613 29,700 -360 Descending FlightAware
05:39PM 47.9790 -119.5300 81° East 532 612 29,500  Descending FlightAware
05:39PM 47.9930 -119.4120 80° East 531 611 29,700 480 Climbing FlightAware
05:40PM 47.9900 -119.2700 92° East 525 604 30,100 120 Climbing FlightAware
05:41PM 47.9790 -119.1270 97° East 532 612 29,900 -180 Descending FlightAware
05:41PM 47.9680 -118.9950 97° East 534 615 29,900  Level FlightAware
05:42PM 47.9610 -118.8730 95° East 534 615 29,900  Level FlightAware
05:42PM 47.9540 -118.7550 95° East 534 615 29,900  Level FlightAware
05:43PM 47.9480 -118.6490 95° East 534 615 29,900 -540 Level FlightAware
05:43PM 47.9403 -118.5836 98° East 540 621 29,500  Descending Seattle Center
05:44PM 47.9410 -118.5360 95° East 534 615 29,900 180 Climbing FlightAware
05:44PM 47.9411 -118.3631 90° East 536 617 29,700  Descending Seattle Center
05:44PM 47.9340 -118.4210 95° East 534 615 29,900 300 Climbing FlightAware
05:45PM 47.9280 -118.3080 94° East 534 615 29,900 300 Level FlightAware
05:45PM 47.9497 -118.1425 87° East 540 621 30,200 60 Climbing Seattle Center
05:46PM 47.9228 -117.9281 101° East 529 609 30,000 -180 Descending Seattle Center
05:47PM 47.9003 -117.7094 99° East 533 613 29,900 -120 Descending Seattle Center
05:48PM 47.8719 -117.4431 99° East 541 623 29,800 -120 Descending Seattle Center
05:49PM 47.7990 -117.2229 98° East  Level FlightAware Approximate
05:49PM 47.8506 -117.2211 98° East 539 620 29,700  Level Seattle Center
05:50PM 47.8206 -117.0014 101° East 535 616 29,700 60 Level Seattle Center
05:51PM 47.7892 -116.7819 102° East 535 616 29,900 60 Climbing Seattle Center
05:52PM 47.7614 -116.5631 101° East 535 616 29,900 -120 Level Seattle Center
05:53PM 47.7400 -116.3433 98° East 536 617 29,700 -120 Descending Seattle Center
05:54PM 47.7258 -116.1225 95° East 537 618 29,700 120 Level Seattle Center
05:55PM 47.7119 -115.9028 95° East 537 618 30,000 240 Climbing Seattle Center
05:56PM 47.6972 -115.7094 96° East 538 619 30,200 120 Climbing Seattle Center
05:57PM 47.6678 -115.4486 99° East 537 618 30,300 60 Climbing Seattle Center
05:58PM 47.6381 -115.2331 101° East 537 618 30,400 60 Climbing Seattle Center
06:00PM 47.6033 -115.0175 103° East 540 621 30,500  Climbing Seattle Center
06:01PM 47.5900 -114.8119 95° East 514 592 30,400 -180 Descending Seattle Center
06:02PM 47.6908 -114.7531 21° North 428 493 30,200 -180 Descending Seattle Center
06:03PM 47.7353 -114.8983 295° West 414 476 30,100 -60 Descending Seattle Center
06:04PM 47.7439 -115.0678 274° West 413 475 30,100  Level Seattle Center
06:05PM 47.7500 -115.2389 273° West 413 475 30,100  Level Seattle Center
06:06PM 47.7539 -115.4092 272° West 413 475 30,100 -60 Level Seattle Center
06:07PM 47.7597 -115.5839 273° West 420 483 30,000 -120 Descending Seattle Center
06:08PM 47.7767 -115.8064 277° West 477 549 29,900 -120 Descending Seattle Center
06:09PM 47.7956 -116.0178 278° West 508 585 29,800 -60 Descending Seattle Center
06:10PM 47.8156 -116.2281 278° West 515 593 29,800 60 Level Seattle Center
06:11PM 47.8378 -116.4364 279° West 515 593 30,000 120 Climbing Seattle Center
06:12PM 47.8364 -116.6117 269° West 445 512 30,100 360 Climbing Seattle Center
06:13PM 47.8353 -116.7842 270° West 423 487 30,800  Climbing Seattle Center
06:14PM 47.8394 -116.9967 272° West 432 497 30,200 -540 Descending Seattle Center
06:15PM 47.8553 -117.1953 277° West 482 555 29,800 -180 Descending Seattle Center
06:16PM 47.8811 -117.4058 280° West 516 594 29,900  Climbing Seattle Center
06:17PM 47.9083 -117.6142 281° West 519 597 29,800 360 Descending Seattle Center
06:18PM 47.9319 -117.8144 280° West 492 566 30,700 300 Climbing Seattle Center
06:19PM 47.9508 -117.9850 279° West 420 483 30,500  Descending Seattle Center
06:20PM 47.9694 -118.1578 279° West 422 486 30,800 120 Climbing Seattle Center
06:21PM 47.9872 -118.3347 279° West 431 496 30,800  Level Seattle Center
06:22PM 47.9878 -118.5700 270° West 477 549 30,800 -120 Level Seattle Center
06:23PM 47.9856 -118.7678 269° West 479 551 30,600 -1,320 Descending Seattle Center
06:29PM 47.9920 -119.8450 269° West 479 551 22,000 -1,380 Descending FlightAware
06:29PM 48.0000 -119.9540 276° West 478 550 21,900 -120 Descending FlightAware
06:30PM 48.0080 -120.0560 277° West 476 548 21,900  Level FlightAware
06:30PM 48.0150 -120.1540 276° West 477 549 21,900 60 Level FlightAware
06:31PM 48.0240 -120.2780 276° West 475 547 22,000  Climbing FlightAware
06:32PM 48.0330 -120.3920 277° West 476 548 21,900 -120 Descending FlightAware
06:32PM 48.0410 -120.5030 276° West 477 549 21,900  Level FlightAware
06:33PM 48.0500 -120.6190 277° West 477 549 21,900  Level FlightAware
06:33PM 48.0590 -120.7380 276° West 478 550 21,900  Level FlightAware
06:34PM 48.0680 -120.8560 277° West 479 551 21,900  Level FlightAware
06:34PM 48.0760 -120.9690 276° West 478 550 21,900 240 Level FlightAware
06:35PM 48.0830 -121.0090 285° West 473 544 22,100 900 Climbing FlightAware
06:35PM 48.0920 -121.0320 300° West 469 540 22,200 360 Climbing FlightAware
06:35PM 48.1030 -121.0520 309° West 469 540 22,200  Level FlightAware
06:35PM 48.1150 -121.0650 324° Northwest 469 540 22,200  Level FlightAware
06:35PM 48.1400 -121.0810 337° Northwest 472 543 22,200 -300 Level FlightAware
06:35PM 48.1580 -121.0840 354° North 477 549 22,100 -300 Descending FlightAware
06:36PM 48.2320 -121.0240 28° Northeast 487 560 22,000 -300 Descending FlightAware
06:36PM 48.2400 -120.9980 65° Northeast 493 567 21,900  Descending FlightAware
06:36PM 48.2450 -120.9520 81° East 495 570 22,000  Climbing FlightAware
06:37PM 48.2290 -120.8720 107° East 499 574 21,900  Descending FlightAware
06:37PM 48.1900 -120.7760 121° Southeast 512 589 22,000 60 Climbing FlightAware
06:38PM 48.1480 -120.6720 121° Southeast 509 586 22,000  Level FlightAware
06:39PM 48.1030 -120.5650 122° Southeast 510 587 22,000  Level FlightAware
06:39PM 48.0610 -120.4660 122° Southeast 509 586 22,000 -120 Level FlightAware
06:40PM 48.0160 -120.3640 123° Southeast 488 562 21,900  Descending FlightAware
06:40PM 48.0040 -120.3120 109° East 462 532 22,000  Climbing FlightAware
06:41PM 48.0040 -120.2150 90° East 434 499 21,900 -480 Descending FlightAware
06:41PM 48.0060 -120.1080 88° East 426 490 21,500 -960 Descending FlightAware
06:42PM 48.0000 -119.9620 93° East 424 488 20,500 -720 Descending FlightAware
06:43PM 47.9960 -119.8720 94° East 424 488 20,500  Level FlightAware
06:43PM 47.9920 -119.7830 94° East 424 488 20,500  Level FlightAware
06:44PM 47.9880 -119.6930 94° East 424 488 20,500  Level FlightAware
06:44PM 47.9840 -119.6040 94° East 424 488 20,500  Level FlightAware
06:45PM 47.9790 -119.5140 95° East 424 488 20,500 -5,460 Level FlightAware
06:46PM 47.9667 -119.3175 95° East 315 362 10,100 -4,560 Descending Seattle Center
06:47PM 47.9611 -119.2114 94° East 264 304 9,900 -180 Descending Seattle Center
06:48PM 47.9597 -119.1139 91° East 240 276 9,800 -60 Descending Seattle Center
06:49PM 47.9594 -119.0150 90° East 239 275 9,800  Level Seattle Center
06:50PM 47.9578 -118.9189 91° East 234 269 9,800 -60 Level Seattle Center
06:51PM 47.9542 -118.8228 93° East 233 268 9,700  Descending Seattle Center
06:52PM 47.9483 -118.7269 95° East 232 267 9,800 60 Climbing Seattle Center
06:53PM 47.9375 -118.6314 100° East 235 270 9,900 60 Climbing Seattle Center
06:54PM 47.9256 -118.5367 101° East 233 268 10,000  Climbing Seattle Center
06:55PM 47.9156 -118.4422 99° East 233 268 10,000 -60 Level Seattle Center
06:56PM 47.9117 -118.3458 93° East 232 267 9,900 -60 Descending Seattle Center
06:57PM 47.9064 -118.2322 94° East 229 264 9,900 -60 Level Seattle Center
06:59PM 47.8992 -118.1367 96° East 232 267 9,800  Descending Seattle Center
07:00PM 47.8906 -118.0431 98° East 228 262 10,000 120 Climbing Seattle Center
07:01PM 47.8869 -117.9489 93° East 228 262 10,100 60 Climbing Seattle Center
07:02PM 47.8903 -117.8542 87° East 229 264 10,200 60 Climbing Seattle Center
07:03PM 47.9006 -117.7603 81° East 229 264 10,300 -300 Climbing Seattle Center
07:04PM 47.8894 -117.6681 100° East 242 278 9,600 -240 Descending Seattle Center
07:05PM 47.8369 -117.6953 199° South 234 269 9,900 120 Climbing Seattle Center
07:06PM 47.8439 -117.7831 277° West 217 250 9,900 -60 Level Seattle Center
07:07PM 47.8486 -117.8733 274° West 219 252 9,800  Descending Seattle Center
07:08PM 47.8525 -117.9653 274° West 222 255 9,900  Climbing Seattle Center
07:09PM 47.8550 -118.0561 272° West 221 254 9,900  Level Seattle Center
07:10PM 47.8589 -118.1667 273° West 223 257 9,900  Level Seattle Center
07:11PM 47.8647 -118.2558 276° West 219 252 10,000 120 Climbing Seattle Center
07:12PM 47.8742 -118.3444 279° West 218 251 10,200 300 Climbing Seattle Center
07:13PM 47.8803 -118.4361 276° West 221 254 10,700 300 Climbing Seattle Center
07:14PM 47.8858 -118.5353 275° West 239 275 10,900 240 Climbing Seattle Center
07:15PM 47.8917 -118.6281 275° West 228 262 11,200 1,080 Climbing Seattle Center
07:16PM 47.8917 -118.7261 270° West 235 270 13,100 1,740 Climbing Seattle Center
07:17PM 47.8911 -118.8356 270° West 277 319 14,800 1,320 Climbing Seattle Center
07:18PM 47.8894 -118.9689 269° West 319 367 15,900 480 Climbing Seattle Center
07:19PM 47.8886 -119.1231 270° West 371 427 15,900  Level Seattle Center
07:20PM 47.8875 -119.2778 269° West 375 432 15,900  Level Seattle Center
07:21PM 47.8856 -119.4611 269° West 372 428 15,900  Level Seattle Center
07:22PM 47.8842 -119.6136 269° West 371 427 15,900 -60 Level Seattle Center
07:28PM 47.8690 -120.5460 269° West 376 433 15,800 -60 Descending FlightAware
07:29PM 47.8670 -120.6450 268° West 375 432 15,800  Level FlightAware
07:29PM 47.8650 -120.7290 268° West 373 429 15,800  Level FlightAware
07:30PM 47.8630 -120.8190 268° West 375 432 15,800  Level FlightAware
07:30PM 47.8610 -120.9100 268° West 377 434 15,800  Level FlightAware
07:31PM 47.8590 -121.0060 268° West 373 429 15,800  Level FlightAware
07:31PM 47.8570 -121.0880 268° West 367 422 15,800  Level FlightAware
07:32PM 47.8550 -121.1740 268° West 333 383 15,800 -720 Level FlightAware
07:33PM 47.8580 -121.2550 273° West 324 373 15,000 -1,380 Descending FlightAware
07:33PM 47.8630 -121.3260 276° West 324 373 14,300 -1,320 Descending FlightAware
07:34PM 47.8680 -121.4070 275° West 323 372 13,500 -1,560 Descending FlightAware
07:34PM 47.8640 -121.4820 265° West 323 372 12,500 -1,680 Descending FlightAware
07:35PM 47.8590 -121.5610 265° West 317 365 11,600 -1,500 Descending FlightAware
07:35PM 47.8540 -121.6390 265° West 312 359 10,700 -1,380 Descending FlightAware
07:36PM 47.8500 -121.7140 265° West 300 345 10,000 -900 Descending FlightAware
07:36PM 47.8470 -121.7550 264° West 281 323 9,900 -720 Descending FlightAware
07:37PM 47.8450 -121.7960 266° West 277 319 9,500 -1,320 Descending FlightAware
07:37PM 47.8430 -121.8340 266° West 278 320 9,000 -1,380 Descending FlightAware
07:37PM 47.8380 -121.8710 259° West 275 316 8,600 -1,500 Descending FlightAware
07:38PM 47.8330 -121.9000 256° West 275 316 8,100 -1,980 Descending FlightAware
07:38PM 47.8270 -121.9340 255° West 278 320 7,500 -1,860 Descending FlightAware
07:38PM 47.8200 -121.9780 257° West 278 320 6,800 -1,800 Descending FlightAware
07:39PM 47.8140 -122.0160 257° West 276 318 6,200 -1,680 Descending FlightAware
07:39PM 47.8080 -122.0520 256° West 274 315 5,700 -1,560 Descending FlightAware
07:39PM 47.8020 -122.0930 258° West 273 314 5,100 -1,680 Descending FlightAware
07:40PM 47.7970 -122.1260 257° West 269 310 4,600 -1,500 Descending FlightAware
07:40PM 47.7870 -122.1650 249° West 257 296 4,100 -1,380 Descending FlightAware
07:40PM 47.7780 -122.1980 248° West 243 280 3,600 -1,740 Descending FlightAware
07:41PM 47.7710 -122.2260 250° West 235 270 3,000 -1,800 Descending FlightAware
07:41PM 47.7610 -122.2620 248° West 221 254 2,300 -1,440 Descending FlightAware
07:41PM 47.7550 -122.2800 244° Southwest 218 251 2,100 -600 Descending FlightAware
07:42PM 47.7450 -122.3050 239° Southwest 211 243 2,000 -180 Descending FlightAware
07:42PM 47.7330 -122.3330 238° Southwest 210 242 2,000  Level FlightAware
07:42PM 47.7220 -122.3570 236° Southwest 209 241 2,000  Level FlightAware
07:43PM 47.7160 -122.3710 238° Southwest 209 241 2,000  Level FlightAware
07:43PM 47.7120 -122.3780 230° Southwest 208 239 2,000  Level FlightAware
07:43PM 47.7030 -122.3850 208° Southwest 199 229 2,000  Level FlightAware
07:43PM 47.6960 -122.3870 191° South 193 222 2,000  Level FlightAware
07:43PM 47.6790 -122.3860 178° South 188 216 2,000  Level FlightAware
07:44PM 47.6640 -122.3850 177° South 187 215 2,000  Level FlightAware
07:44PM 47.6420 -122.3830 176° South 185 213 2,000 -180 Level FlightAware
07:44PM 47.6250 -122.3810 175° South 190 219 1,900 -660 Descending FlightAware
07:45PM 47.6180 -122.3770 159° South 188 216 1,700 -1,380 Descending FlightAware
07:45PM 47.6090 -122.3690 149° Southeast 181 208 1,400 -1,080 Descending FlightAware
07:45PM 47.5950 -122.3570 150° Southeast 176 203 1,100 -1,020 Descending FlightAware
07:46PM 47.5800 -122.3440 150° Southeast 158 182 700 -840 Descending FlightAware
07:46PM 47.5630 -122.3300 151° Southeast 152 175 400 -480 Descending FlightAware
07:46PM 47.5470 -122.3160 149° Southeast 152 175 300 -240 Descending FlightAware
07:47PM 47.5183 -122.2919 149° Southeast 155 178 100 -240 Descending Seattle Center
07:49PM 47.5167 -122.3000 234° Southwest  Level FlightAware Approximate